Overview Statistics Trail Chart Weather Telemetry Raw packets
 

This is the latest recevied weather packets stored in our database for station/object I0UVN-10. If no packets are shown the sender has not sent any weather packets the latest 10 day(s).

<< 1 2 3 4 5 6 >>
Time Temp. Humidity Pressure Rain* Wind** Luminosity Snow
1788530420 30° C 45% 1022.6 hPa - - - -
1788529254 30° C 44% 1022.5 hPa - - - -
1788529220 30° C 44% 1022.5 hPa - - - -
1788528020 30° C 43% 1022.8 hPa - - - -
1788526820 30° C 43% 1022.7 hPa - - - -
1788525620 30° C 44% 1022.8 hPa - - - -
1788524419 30° C 44% 1023 hPa - - - -
1788523219 29.44° C 44% 1023.2 hPa - - - -
1788522019 30° C 43% 1022.9 hPa - - - -
1788520819 30° C 42% 1023.1 hPa - - - -
1788519619 29.44° C 43% 1023.3 hPa - - - -
1788518418 30° C 43% 1023.2 hPa - - - -
1788517213 30° C 43% 1023.4 hPa - - - -
1788516038 30° C 43% 1023.5 hPa - - - -
1788514841 30° C 45% 1023.6 hPa - - - -
1788513637 29.44° C 46% 1023.6 hPa - - - -
1788512437 29.44° C 46% 1023.6 hPa - - - -
1788511237 28.89° C 46% 1023.5 hPa - - - -
1788510037 28.89° C 46% 1023.3 hPa - - - -
1788508837 28.89° C 47% 1023.3 hPa - - - -
1788507637 28.33° C 47% 1023.1 hPa - - - -
1788506437 28.33° C 47% 1022.9 hPa - - - -
1788505237 28.33° C 49% 1022.7 hPa - - - -
1788504036 28.33° C 48% 1022.5 hPa - - - -
1788502836 27.78° C 49% 1022.3 hPa - - - -

* Rain since midnight (hover to see other rain measurements)
** Current wind speed in m/s (hover to see current wind gust speed)